EW7213 Weather Reports


time (UTC)temp
F
wind
direction
speed
knots
gust
knots
rain 1hr
in
rain 24hr
in
rain mn
in
humidity
%
barometer
mb
20260503230727 63 211 0.0 0.0 0.00 0.00 0.00 44 1014.7
20260503230227 63 193 0.0 0.0 0.00 0.00 0.00 43 1014.8
20260503225727 63 274 0.0 0.0 0.00 0.00 0.00 43 1015.0
20260503225227 63 229 0.0 0.0 0.00 0.00 0.00 43 1015.1
20260503224727 63 196 0.0 0.0 0.00 0.00 0.00 42 1015.2
20260503224227 63 233 0.0 0.0 0.00 0.00 0.00 42 1015.3
20260503223727 63 227 0.0 0.0 0.00 0.00 0.00 41 1015.4
20260503223230 63 205 0.0 0.0 0.00 0.00 0.00 40 1015.3
20260503223226 63 255 0.0 0.0 0.00 0.00 0.00 41 1015.4
20260503222226 64 181 0.0 0.0 0.00 0.00 0.00 41 1015.2
20260503221725 64 248 0.0 0.0 0.00 0.00 0.00 41 1015.2
20260503221225 63 212 0.0 0.0 0.00 0.00 0.00 42 1015.2
20260503220725 63 211 0.0 0.0 0.00 0.00 0.00 42 1015.2
20260503220225 63 202 0.0 0.0 0.00 0.00 0.00 43 1015.3
20260503215725 63 240 0.0 0.0 0.00 0.00 0.00 43 1015.3
20260503215227 63 246 0.0 0.0 0.00 0.00 0.00 43 1015.3
20260503214725 63 234 0.0 0.0 0.00 0.00 0.00 43 1015.3
20260503214225 63 219 0.0 0.0 0.00 0.00 0.00 43 1015.4
20260503213726 63 223 0.0 0.0 0.00 0.00 0.00 43 1015.4
20260503213225 63 174 0.0 0.0 0.00 0.00 0.00 42 1015.5
20260503212725 64 219 0.0 0.0 0.00 0.00 0.00 43 1015.6
20260503212223 63 234 0.0 0.0 0.00 0.00 0.00 42 1015.5
20260503211726 63 222 0.0 0.0 0.00 0.00 0.00 43 1015.7
20260503211722 63 192 0.0 0.0 0.00 0.00 0.00 42 1015.6
20260503210721 63 214 0.0 0.0 0.00 0.00 0.00 42 1015.9
20260503210222 63 170 0.0 0.0 0.00 0.00 0.00 41 1016.0
20260503205724 63 177 0.0 0.0 0.00 0.00 0.00 41 1016.2
20260503205720 63 274 0.0 0.0 0.00 0.00 0.00 42 1016.2
20260503204719 63 275 0.0 0.0 0.00 0.00 0.00 43 1016.3
20260503204217 63 262 0.0 0.0 0.00 0.00 0.00 42 1016.5
20260503203721 62 218 0.0 0.0 0.00 0.00 0.00 41 1016.8
20260503203717 62 213 0.0 0.0 0.00 0.00 0.00 43 1016.6
20260503203217 63 245 0.0 0.0 0.00 0.00 0.00 42 1016.7
20260503202214 62 188 0.0 0.0 0.00 0.00 0.00 41 1016.9
20260503201716 63 221 0.0 0.0 0.00 0.00 0.00 40 1016.8
20260503201215 63 190 0.0 0.0 0.00 0.00 0.00 41 1016.8
20260503200720 62 188 0.0 0.0 0.00 0.00 0.00 40 1017.2
20260503200716 63 174 0.0 0.0 0.00 0.00 0.00 40 1017.0
20260503195714 62 275 0.0 0.0 0.00 0.00 0.00 39 1017.2
20260503195215 62 284 0.0 0.0 0.00 0.00 0.00 38 1017.4
20260503194715 62 312 0.0 0.0 0.00 0.00 0.00 38 1017.5
20260503194215 62 312 0.0 0.0 0.00 0.00 0.00 37 1017.6
20260503193715 62 204 0.0 0.0 0.00 0.00 0.00 39 1017.5
20260503193214 62 250 0.0 0.0 0.00 0.00 0.00 38 1017.7
20260503192715 62 258 0.0 0.0 0.00 0.00 0.00 37 1017.6
20260503192214 62 262 0.0 0.0 0.00 0.00 0.00 37 1017.7
20260503191720 61 294 0.0 0.0 0.00 0.00 0.00 39 1017.8
20260503191715 61 260 0.0 0.0 0.00 0.00 0.00 38 1017.7
20260503191215 61 205 0.0 0.0 0.00 0.00 0.00 38 1017.8
20260503190214 61 243 0.0 0.0 0.00 0.00 0.00 38 1018.0
20260503185821 60 223 0.0 0.0 0.00 0.00 0.00 37 1018.2
20260503185719 61 186 0.0 0.0 0.00 0.00 0.00 39 1018.1
20260503185715 61 186 0.0 0.0 0.00 0.00 0.00 39 1018.0
20260503184215 60 178 0.0 0.0 0.00 0.00 0.00 39 1018.3
20260503183714 60 173 0.0 0.0 0.00 0.00 0.00 38 1018.3
20260503183215 60 190 0.0 0.0 0.00 0.00 0.00 39 1018.5
20260503182716 60 212 0.0 0.0 0.00 0.00 0.00 40 1018.4
20260503182214 60 198 0.0 0.0 0.00 0.00 0.00 40 1018.3
20260503181715 59 255 0.0 0.0 0.00 0.00 0.00 40 1018.5
20260503181215 59 247 0.0 0.0 0.00 0.00 0.00 38 1018.6
20260503180719 59 180 0.0 0.0 0.00 0.00 0.00 40 1018.8
20260503180715 59 231 0.0 0.0 0.00 0.00 0.00 39 1018.7
20260503175714 59 280 0.0 0.0 0.00 0.00 0.00 38 1018.7
20260503175213 59 251 0.0 0.0 0.00 0.00 0.00 39 1018.9
20260503174712 59 243 0.0 0.0 0.00 0.00 0.00 38 1019.0
20260503174212 59 268 0.0 0.0 0.00 0.00 0.00 40 1019.2
20260503173710 59 232 0.0 0.0 0.00 0.00 0.00 40 1019.2
20260503173216 58 134 0.0 0.0 0.00 0.00 0.00 38 1019.4
20260503173212 58 305 0.0 0.0 0.00 0.00 0.00 39 1019.2
20260503172711 58 251 0.0 0.0 0.00 0.00 0.00 40 1019.4
20260503171709 58 226 0.0 0.0 0.00 0.00 0.00 38 1019.5
20260503171212 59 202 0.0 0.0 0.00 0.00 0.00 38 1019.6
20260503171208 58 155 0.0 0.0 0.00 0.00 0.00 38 1019.6
20260503170208 58 163 0.0 0.0 0.00 0.00 0.00 41 1019.6
20260503160206 56 189 0.0 0.0 0.00 0.00 0.00 40 1020.4
20260503150204 53 341 0.0 0.0 0.00 0.00 0.00 46 1021.1
20260503140202 48 287 0.0 0.0 0.00 0.00 0.00 78 1021.0
20260503131201 43 101 0.0 0.0 0.00 0.00 0.00 90 1021.0
20260503130700 42 101 0.0 0.0 0.00 0.00 0.00 91 1021.0
20260503130158 41 101 0.0 0.0 0.00 0.00 0.00 92 1020.9
20260503110656 33 96 0.0 0.0 0.00 0.00 0.00 93 1020.1
20260503110156 33 96 0.0 0.0 0.00 0.00 0.00 93 1020.0
20260503100150 34 96 0.0 0.0 0.00 0.00 0.00 92 1019.4
20260503090146 36 96 0.0 0.0 0.00 0.00 0.00 92 1019.4
20260503081143 37 96 0.0 0.0 0.00 0.00 0.00 92 1019.3
20260503080648 38 96 0.0 0.0 0.00 0.00 0.00 91 1019.0
20260503080643 37 96 0.0 0.0 0.00 0.00 0.00 92 1019.2
20260503080143 38 96 0.0 0.0 0.00 0.00 0.00 92 1019.1
20260503072642 38 96 0.0 0.0 0.00 0.00 0.00 91 1019.0
20260503072140 39 96 0.0 0.0 0.00 0.00 0.00 91 1019.0
20260503071640 39 96 0.0 0.0 0.00 0.00 0.00 91 1019.1
20260503071138 39 96 0.0 0.0 0.00 0.00 0.00 91 1019.1
20260503070638 39 96 0.0 0.0 0.00 0.00 0.00 91 1019.0
20260503070140 39 96 0.0 0.0 0.00 0.00 0.00 91 1019.0
20260503060139 41 96 0.0 0.0 0.00 0.00 0.00 90 1018.8
20260503054633 41 96 0.0 0.0 0.00 0.00 0.00 90 1018.7
20260503054136 42 96 0.0 0.0 0.00 0.00 0.00 90 1018.6
20260503054132 41 96 0.0 0.0 0.00 0.00 0.00 90 1018.6
20260503053132 42 96 0.0 0.0 0.00 0.00 0.00 90 1018.6
20260503052632 42 96 0.0 0.0 0.00 0.00 0.00 90 1018.6
20260503052132 42 96 0.0 0.0 0.00 0.00 0.00 90 1018.6
20260503051636 42 96 0.0 0.0 0.00 0.00 0.00 90 1018.5
20260503051632 42 96 0.0 0.0 0.00 0.00 0.00 90 1018.6
20260503050636 42 96 0.0 0.0 0.00 0.00 0.00 90 1018.5
20260503050632 42 96 0.0 0.0 0.00 0.00 0.00 90 1018.6
20260503045631 42 96 0.0 0.0 0.00 0.00 0.00 90 1018.4
20260503045131 42 96 0.0 0.0 0.00 0.00 0.00 89 1018.3
20260503044630 42 96 0.0 0.0 0.00 0.00 0.00 89 1018.4
20260503044134 42 96 0.0 0.0 0.00 0.00 0.00 89 1018.4
20260503044130 42 96 0.0 0.0 0.00 0.00 0.00 89 1018.4
20260503043130 42 97 0.0 0.0 0.00 0.00 0.00 89 1018.3
20260503042631 42 97 0.0 0.0 0.00 0.00 0.00 88 1018.2
20260503042130 42 97 0.0 0.0 0.00 0.00 0.00 88 1018.2
20260503041630 42 97 0.0 0.0 0.00 0.00 0.00 88 1018.2
20260503041130 42 97 0.0 0.0 0.00 0.00 0.00 88 1018.2
20260503040629 42 97 0.0 0.0 0.00 0.00 0.00 88 1018.1
20260503040129 43 97 0.0 0.0 0.00 0.00 0.00 87 1018.1
20260503035627 43 97 0.0 0.0 0.00 0.00 0.00 87 1018.1
20260503035128 43 97 0.0 0.0 0.00 0.00 0.00 86 1018.1
20260503034628 44 97 0.0 0.0 0.00 0.00 0.00 86 1018.1
20260503034127 44 97 0.0 0.0 0.00 0.00 0.00 86 1018.0
20260503033629 44 97 0.0 0.0 0.00 0.00 0.00 86 1018.0
20260503033128 44 97 0.0 0.0 0.00 0.00 0.00 85 1018.1
20260503032633 44 97 0.0 0.0 0.00 0.00 0.00 84 1018.1
20260503032629 44 97 0.0 0.0 0.00 0.00 0.00 85 1018.0
20260503032238 45 97 0.0 0.0 0.00 0.00 0.00 83 1018.0
20260503032233 45 97 0.0 0.0 0.00 0.00 0.00 84 1018.1
20260503030629 46 97 0.0 0.0 0.00 0.00 0.00 83 1018.0
20260503030624 45 97 0.0 0.0 0.00 0.00 0.00 83 1018.1
20260503025623 46 97 0.0 0.0 0.00 0.00 0.00 82 1018.0
20260503025125 46 97 0.0 0.0 0.00 0.00 0.00 82 1018.0
20260503024623 46 97 0.0 0.0 0.00 0.00 0.00 82 1017.9
20260503024124 46 97 0.0 0.0 0.00 0.00 0.00 81 1017.9
20260503023622 47 97 0.0 0.0 0.00 0.00 0.00 81 1017.8
20260503023121 47 97 0.0 0.0 0.00 0.00 0.00 80 1017.8
20260503022622 47 97 0.0 0.0 0.00 0.00 0.00 79 1017.8
20260503022125 47 97 0.0 0.0 0.00 0.00 0.00 79 1017.7
20260503022121 47 97 0.0 0.0 0.00 0.00 0.00 79 1017.7
20260503021122 47 97 0.0 0.0 0.00 0.00 0.00 79 1017.6
20260503020625 48 97 0.0 0.0 0.00 0.00 0.00 77 1017.6
20260503020621 47 97 0.0 0.0 0.00 0.00 0.00 78 1017.6
20260503015622 48 97 0.0 0.0 0.00 0.00 0.00 76 1017.6
20260503015121 49 80 0.0 0.0 0.00 0.00 0.00 75 1017.5
20260503014622 49 76 0.0 0.0 0.00 0.00 0.00 73 1017.4
20260503014130 51 28 0.0 0.0 0.00 0.00 0.00 68 1017.3
20260503014126 50 76 0.0 0.0 0.00 0.00 0.00 71 1017.4
20260503013622 51 76 0.0 0.0 0.00 0.00 0.00 69 1017.3
20260503013228 51 28 0.0 0.0 0.00 0.00 0.00 68 1017.3
20260503012122 51 28 0.0 0.0 0.00 0.00 0.00 67 1017.2
20260503011626 52 28 0.0 0.0 0.00 0.00 0.00 64 1016.9
20260503011622 51 28 0.0 0.0 0.00 0.00 0.00 65 1017.1
20260503010621 52 28 0.0 0.0 0.00 0.00 0.00 63 1016.9
20260503010123 52 28 0.0 0.0 0.00 0.00 0.00 62 1016.8
20260503005627 53 12 0.0 0.0 0.00 0.00 0.00 61 1016.7
20260503005623 52 17 0.0 0.0 0.00 0.00 0.00 62 1016.8
20260503005121 53 17 0.0 0.0 0.00 0.00 0.00 61 1016.8
20260503004620 53 22 0.0 0.0 0.00 0.00 0.00 62 1016.7
20260503003619 53 9 0.0 0.0 0.00 0.00 0.00 61 1016.7
20260503003119 53 24 0.0 0.0 0.00 0.00 0.00 60 1016.6
20260503002619 53 13 0.0 0.0 0.00 0.00 0.00 60 1016.5
20260503002119 53 5 0.0 0.0 0.00 0.00 0.00 60 1016.3
20260503001625 54 5 0.0 0.0 0.00 0.00 0.00 58 1016.2
20260503001620 54 40 0.0 0.0 0.00 0.00 0.00 59 1016.3
20260503001119 54 42 0.0 0.0 0.00 0.00 0.00 59 1016.2
20260503000118 54 355 0.0 0.0 0.00 0.00 0.00 57 1016.1
20260502235619 55 351 0.0 0.0 0.00 0.00 0.00 54 1016.0
20260502235615 55 0 0.0 0.0 0.00 0.00 0.00 55 1016.0
20260502235222 55 32 0.0 0.0 0.00 0.00 0.00 53 1015.9
20260502234720 55 330 0.0 0.0 0.00 0.00 0.00 53 1015.9
20260502234220 55 12 0.0 0.0 0.00 0.00 0.00 52 1015.8
20260502233114 55 329 0.0 0.0 0.00 0.00 0.00 52 1015.8
20260502232614 55 355 0.0 0.0 0.00 0.00 0.00 51 1015.9
20260502232113 55 336 0.0 0.0 0.00 0.00 0.00 50 1015.8
20260502231613 56 325 0.0 0.0 0.00 0.00 0.00 49 1015.8
20260502231117 56 9 0.0 0.0 0.00 0.00 0.00 47 1015.8
20260502231113 56 315 0.0 0.0 0.00 0.00 0.00 48 1015.8